Elmira, NY

10:51 PM EST on December 13, 2019 (GMT -0500)
Elmira-Corning Regional

Weather History for KELM - October, 2019

Change the Weather History Date:

Wednesday, October 16, 2019

  Actual Average Record
Temperature  
Mean Temperature 50 °F -  
Max Temperature 63 °F 64 °F 90 °F (1947)
Min Temperature 37 °F 39 °F 24 °F (2006)
Degree Days  
Heating Degree Days 15    
Moisture  
Dew Point 47 °F    
Average Humidity 86    
Maximum Humidity 97    
Minimum Humidity 65    
Precipitation  
Precipitation 0.87 in - - ()
Sea Level Pressure  
Sea Level Pressure 29.63 in    
Wind  
Wind Speed 5 mph (SSW)    
Max Wind Speed 18 mph    
Max Gust Speed 32 mph    
Visibility 7 miles    
Events Rain    
Averages and records for this station are not official NWS values.
T = Trace of Precipitation, MM = Missing Value Source: NWS Daily Summary

Daily Weather History Graph

Daily Weather History Graph

Search for Another Location

Airport or City:

Astronomy

Oct. 16, 2019 Rise Set
Actual Time 7:21 AM EDT 6:24 PM EDT
Civil Twilight 6:52 AM EDT 6:52 PM EDT
Nautical Twilight 6:20 AM EDT 7:25 PM EDT
Astronomical Twilight 5:47 AM EDT 7:57 PM EDT
Moon 8:14 PM EDT (10/16) 9:51 AM EDT (10/16)
Length of Visible Light 11h 59m
Length of Day
11h 03m
Waning Gibbous, 93% of the Moon is Illuminated
Oct 16
Waning Gibbous
Oct 21
Last Quarter
Oct 27
New
Nov 4
First Quarter
Nov 12
Full

Hourly Weather History & Observations

Time (EDT) Temp. Windchill Dew Point Humidity Pressure Visibility Wind Dir Wind Speed Gust Speed Precip Events Conditions
12:53 AM 39.0 °F - 37.0 °F 93% 29.94 in 10.0 mi Calm Calm - N/A   Clear
1:53 AM 37.9 °F - 35.1 °F 89% 29.91 in 10.0 mi Calm Calm - N/A   Clear
2:53 AM 39.0 °F 35.7 °F 36.0 °F 89% 29.89 in 10.0 mi ENE 4.6 mph - N/A   Clear
4:53 AM 37.9 °F - 36.0 °F 93% 29.84 in 10.0 mi Calm Calm - N/A   Clear
5:53 AM 44.1 °F 42.5 °F 39.9 °F 85% 29.83 in 10.0 mi Variable 3.5 mph - N/A   Overcast
6:53 AM 45.0 °F - 42.1 °F 90% 29.78 in 10.0 mi Calm Calm - N/A   Partly Cloudy
7:23 AM 45.0 °F 43.5 °F 42.1 °F 90% 29.75 in 10.0 mi Variable 3.5 mph - N/A   Mostly Cloudy
7:53 AM 51.1 °F - 46.9 °F 86% 29.75 in 10.0 mi WSW 3.5 mph - N/A   Overcast
8:53 AM 57.9 °F - 50.0 °F 75% 29.74 in 10.0 mi Variable 5.8 mph 16.1 mph N/A   Overcast
9:53 AM 61.0 °F - 51.1 °F 70% 29.70 in 10.0 mi South 13.8 mph 24.2 mph N/A   Mostly Cloudy
10:10 AM 61.0 °F - 51.1 °F 70% 29.67 in 10.0 mi South 13.8 mph 25.3 mph N/A   Scattered Clouds
10:53 AM 62.1 °F - 51.1 °F 67% 29.67 in 10.0 mi South 18.4 mph 26.5 mph N/A   Scattered Clouds
11:53 AM 62.1 °F - 52.0 °F 70% 29.65 in 10.0 mi SSW 8.1 mph 19.6 mph N/A   Overcast
12:53 PM 63.0 °F - 51.1 °F 65% 29.63 in 10.0 mi South 13.8 mph 21.9 mph N/A   Mostly Cloudy
1:12 PM 61.0 °F - 53.1 °F 75% 29.61 in 2.0 mi South 6.9 mph - 0.01 in Rain Rain
1:53 PM 57.9 °F - 54.0 °F 87% 29.62 in 2.0 mi South 8.1 mph - 0.10 in Rain Rain
2:00 PM 57.9 °F - 53.1 °F 84% 29.60 in 4.0 mi South 10.4 mph - 0.02 in Rain Rain
2:35 PM 57.9 °F - 54.0 °F 87% 29.57 in 2.0 mi SSE 4.6 mph - 0.09 in Rain Rain
2:53 PM 57.0 °F - 54.0 °F 89% 29.56 in 2.0 mi SSE 3.5 mph - 0.12 in Rain Rain
3:00 PM 57.0 °F - 54.0 °F 89% 29.55 in 3.0 mi SE 4.6 mph - 0.02 in Rain Rain
3:48 PM 55.4 °F - 53.6 °F 94% 29.52 in 2.5 mi WNW 6.9 mph - 0.15 in Rain Rain
3:49 PM 55.9 °F - 54.0 °F 93% 29.53 in 2.5 mi WNW 5.8 mph - 0.16 in Rain Rain
4:40 PM 53.1 °F - 48.9 °F 86% 29.52 in 1.0 mi WNW 16.1 mph 32.2 mph 0.29 in Rain Heavy Rain
4:49 PM 51.8 °F - 46.4 °F 82% 29.52 in 3.0 mi West 13.8 mph - 0.31 in Rain Rain
4:53 PM 51.1 °F - 46.9 °F 86% 29.54 in 4.0 mi WSW 11.5 mph - 0.32 in Rain Rain
5:53 PM 50.0 °F - 48.9 °F 96% 29.54 in 3.0 mi SW 6.9 mph - 0.13 in Rain Rain
6:53 PM 50.0 °F - 48.0 °F 93% 29.53 in 10.0 mi Calm Calm - 0.04 in   Overcast
7:53 PM 48.9 °F - 48.0 °F 97% 29.52 in 10.0 mi SSW 3.5 mph - N/A   Overcast
8:50 PM 46.4 °F 43.5 °F 44.6 °F 93% 29.50 in 2.0 mi West 5.8 mph - N/A   Partly Cloudy
8:53 PM 46.9 °F - 45.0 °F 93% 29.50 in 4.0 mi Variable 5.8 mph - N/A   Partly Cloudy
9:53 PM 46.0 °F 44.8 °F 43.0 °F 89% 29.48 in 10.0 mi SSW 3.5 mph - N/A   Clear
10:53 PM 46.0 °F 44.8 °F 42.1 °F 86% 29.47 in 10.0 mi WSW 3.5 mph - N/A   Mostly Cloudy
11:53 PM 43.0 °F - 42.1 °F 97% 29.45 in 10.0 mi Calm Calm - N/A   Overcast